Location: Izdebno
(52.6670°N, 16.2170°E)
Time: 01:56:53
(UTC+02:00)

Envisat - Visible Passes

Search period start: 09 October 2024 00:00
Search period end: 19 October 2024 00:00
Orbit: 762 x 764 km, 98.3° (Epoch: 08 October)

Date Brightness Start Highest point End Pass type
(mag) Time Alt. Az. Time Alt. Az. Time Alt. Az.
09 Oct 5.5 02:41:11 10° NE 02:44:00 15° E 02:44:17 15° E visible
09 Oct 2.9 04:18:39 10° NNE 04:23:46 85° ESE 04:24:25 68° S visible
09 Oct 4.4 05:58:33 10° N 06:02:08 20° NW 06:04:33 14° W visible
10 Oct 3.9 03:41:18 10° NNE 03:46:09 44° E 03:46:22 43° ESE visible
10 Oct 3.7 05:20:29 10° N 05:25:02 34° WNW 05:26:30 29° W visible
11 Oct 5.0 03:04:21 10° NE 03:08:18 23° E 03:08:18 23° E visible
11 Oct 2.9 04:42:42 10° N 04:47:44 64° WNW 04:48:27 57° WSW visible
11 Oct 4.8 06:23:15 10° NNW 06:25:47 14° NW 06:28:19 10° W visible
12 Oct 5.7 02:28:41 10° ENE 02:30:14 11° E 02:30:14 11° E visible
12 Oct 3.1 04:05:10 10° NNE 04:10:15 68° ESE 04:10:23 67° ESE visible
12 Oct 4.2 05:44:48 10° N 05:48:49 24° WNW 05:50:31 20° W visible
13 Oct 4.4 03:27:55 10° NNE 03:32:19 34° E 03:32:19 34° E visible
13 Oct 3.4 05:06:51 10° N 05:11:37 42° WNW 05:12:27 39° W visible
14 Oct 5.3 02:51:13 10° NE 02:54:15 18° E 02:54:15 18° E visible
14 Oct 2.8 04:29:09 10° NNE 04:34:16 80° WNW 04:34:23 79° W visible
14 Oct 4.6 06:09:18 10° NNW 06:12:29 17° NW 06:14:31 14° W visible
15 Oct 3.7 03:51:42 10° NNE 03:56:19 52° E 03:56:19 52° E visible
15 Oct 3.9 05:31:06 10° N 05:35:25 29° WNW 05:36:27 27° W visible
16 Oct 4.8 03:14:36 10° NE 03:18:15 26° E 03:18:15 26° E visible
16 Oct 3.1 04:53:14 10° N 04:58:10 53° WNW 04:58:23 52° WNW visible
16 Oct 4.9 06:34:16 10° NNW 06:36:05 12° NW 06:37:54 10° WNW visible
17 Oct 5.7 02:38:17 10° NE 02:40:09 14° ENE 02:40:09 14° ENE visible
17 Oct 3.1 04:15:37 10° NNE 04:20:18 74° NE 04:20:18 74° NE visible
17 Oct 4.3 05:55:28 10° N 05:59:08 20° NW 06:00:26 19° WNW visible
18 Oct 4.2 03:38:16 10° NNE 03:42:14 38° ENE 03:42:14 38° ENE visible
18 Oct 3.6 05:17:24 10° N 05:22:00 36° WNW 05:22:22 35° WNW visible
